Flag for Germany Weather past 2 weeks in Kaufbeuren, Bavaria, Germany

Now
55 °F

Partly sunny.


Feels Like: 52 °F
Forecast: 35 / 42 °F
Wind: 14 mph from West

Location: Altenstadt Airport

Current Time: Oct 21, 2014 at 12:40:15 PM

Latest Report: Oct 21, 2014 at 11:20 AM


Visibility: N/A

Pressure: 29.95 "Hg

Humidity: 94%

Dew point: 54 °F

Location of KaufbeurenLocation

Historic Weather in Kaufbeuren — Graph

°F

Kaufbeuren temperature yesterday

Maximum temperature yesterday: 68 °F (at 1:20 PM)
Minimum temperature yesterday: 55 °F (at 4:20 AM)
Average temperature yesterday: 61 °F

Past Weeks' High & Low Weather Summary

 TemperatureHumidityPressure
High77 °F (Oct 9, 2:20 PM)100% (Oct 6, 8:20 PM)30.27 "Hg (Oct 6, 8:20 PM)
Low39 °F (Oct 18, 6:20 AM)34% (Oct 9, 2:20 PM)29.80 "Hg (Oct 15, 2:20 PM)
Average56 °F85%29.98 "Hg
* Reported Oct 6 11:20 AM — Oct 21 11:20 AM, Kaufbeuren, Weather by CustomWeather, © 2014

Note: Actual official high and low records may vary slightly from our data, if they occured in-between our weather recording intervals... More about our weather records

Advertising

Kaufbeuren weather history for previous 24 hours

 ConditionsComfort  
Time TempWeatherWind HumidityBarometerVisibility
11:20 AM
Oct 21
55 °FPartly sunny.14 mph94%29.95 "HgN/A
10:49 AM54 °FSprinkles. Broken clouds.17 mph94%29.98 "HgN/A
10:20 AM55 °FPartly sunny.14 mph88%29.98 "HgN/A
9:20 AM54 °FLight rain. Partly sunny.5 mph94%29.98 "HgN/A
8:20 AM52 °FPassing clouds.2 mph100%29.98 "Hg5 mi
8:03 AM52 °FFog.5 mph100%29.98 "Hg2 mi
7:49 AM52 °FFog.5 mph100%29.98 "Hg1 mi
7:20 AM52 °FLight rain. Passing clouds.3 mph100%29.98 "Hg4 mi
6:20 AM52 °FLight rain. Passing clouds.2 mph100%29.98 "Hg4 mi
5:20 AM54 °FLight rain. Fog.7 mph94%30.01 "Hg3 mi
4:20 AM55 °FCool.10 mph88%30.01 "HgN/A
3:20 AM55 °FCool.17 mph88%30.01 "HgN/A
2:20 AM55 °FCool.16 mph94%30.04 "HgN/A
1:20 AM55 °FCool.12 mph100%30.04 "HgN/A
12:20 AM57 °FCool.10 mph94%30.04 "HgN/A
11:20 PM
Oct 20
57 °FCool.12 mph94%30.04 "HgN/A
10:20 PM57 °FCool.2 mph94%30.07 "HgN/A
9:20 PM59 °FCool.5 mph88%30.07 "HgN/A
8:20 PM61 °FLight rain. Partly cloudy.8 mph77%30.07 "HgN/A
7:20 PM63 °FThundershowers. Passing clouds.8 mph73%30.07 "HgN/A
6:20 PM63 °FPartly sunny.7 mph73%30.07 "HgN/A
5:20 PM66 °FBroken clouds.8 mph68%30.07 "HgN/A
4:20 PM66 °FPartly sunny.14 mph64%30.09 "HgN/A
3:20 PM68 °FBroken clouds.15 mph64%30.09 "HgN/A
2:20 PM68 °FPartly sunny.16 mph60%30.12 "HgN/A
1:20 PM68 °FPartly sunny.17 mph60%30.15 "HgN/A
12:20 PM66 °FPartly sunny.14 mph64%30.15 "HgN/A
Weather by CustomWeather, © 2014

See weather overviewHow to use our weather pages